Edinburgh Airport, United Kingdom

2:46 AM BST on October 01, 2016 (GMT +0100)
Edinburgh Airport

Weather History for 03160 - April, 2013

Change the Weather History Date:

Monday, April 1, 2013

  Actual Average Record
Temperature  
Mean Temperature 32 °F -  
Max Temperature 42 °F - - ()
Min Temperature 23 °F - - ()
Degree Days  
Heating Degree Days 32    
Moisture  
Dew Point 23 °F    
Average Humidity 66    
Maximum Humidity 93    
Minimum Humidity 49    
Precipitation  
Precipitation 0.00 in - - ()
Sea Level Pressure  
Sea Level Pressure 30.04 in    
Wind  
Wind Speed 6 mph ()    
Max Wind Speed 15 mph    
Max Gust Speed -    
Visibility 6.2 miles    
Events      
T = Trace of Precipitation, MM = Missing Value Source: Averaged Metar Reports

Daily Weather History Graph

Daily Weather History Graph

Search for Another Location

Airport or City:

Trip Planner

Search our weather history database for the weather conditions in past years. The results will help you decide how hot, cold, wet, or windy it might be!

Date:

Astronomy

Apr. 01, 2013 Rise Set
Actual Time 6:43 AM BST 7:51 PM BST
Civil Twilight 6:05 AM BST 8:29 PM BST
Nautical Twilight 5:19 AM BST 9:16 PM BST
Astronomical Twilight 4:28 AM BST 10:08 PM BST
Moon 1:34 AM BST 9:26 AM BST
Length of Visible Light 14h 24m
Length of Day
13h 08m
Waning Gibbous, 69% of the Moon is Illuminated
Apr 1
Waning Gibbous
Apr 3
Last Quarter
Apr 10
New
Apr 18
First Quarter
Apr 25
Full

Hourly Weather History & Observations

Time (BST) Temp. Windchill Dew Point Humidity Pressure Visibility Wind Dir Wind Speed Gust Speed Precip Events Conditions
12:20 AM 28.4 °F - 23.0 °F 80% 30.01 in 6.2 mi Variable 2.3 mph - N/A   Unknown
12:50 AM 28.4 °F 22.2 °F 23.0 °F 80% 30.01 in 6.2 mi East 5.8 mph - N/A   Unknown
1:20 AM 26.6 °F 21.2 °F 21.2 °F 80% 30.01 in 6.2 mi NE 4.6 mph - N/A   Unknown
1:50 AM 24.8 °F 20.5 °F 21.2 °F 86% 30.01 in 6.2 mi Variable 3.5 mph - N/A   Unknown
2:20 AM 26.6 °F 21.2 °F 21.2 °F 80% 30.01 in 6.2 mi NE 4.6 mph - N/A   Unknown
2:50 AM 24.8 °F - 21.2 °F 86% 30.01 in 6.2 mi Variable 2.3 mph - N/A   Unknown
3:20 AM 26.6 °F - 21.2 °F 80% 30.01 in 6.2 mi Variable 2.3 mph - N/A   Unknown
3:50 AM 26.6 °F 22.6 °F 21.2 °F 80% 30.01 in 6.2 mi ENE 3.5 mph - N/A   Unknown
4:20 AM 23.0 °F - 19.4 °F 86% 30.01 in 6.2 mi Calm Calm - N/A   Scattered Clouds
4:50 AM 23.0 °F - 19.4 °F 86% 30.01 in 6.2 mi SW 2.3 mph - N/A   Mostly Cloudy
5:20 AM 23.0 °F - 21.2 °F 93% 30.01 in 6.2 mi Calm Calm - N/A   Mostly Cloudy
5:50 AM 24.8 °F - 23.0 °F 93% 30.01 in 6.2 mi Calm Calm - N/A   Overcast
6:20 AM 26.6 °F - 24.8 °F 93% 30.04 in 6.2 mi Calm Calm - N/A   Overcast
6:50 AM 28.4 °F - 24.8 °F 86% 30.04 in 6.2 mi Variable 2.3 mph - N/A   Overcast
7:20 AM 28.4 °F - 23.0 °F 80% 30.04 in 6.2 mi Variable 2.3 mph - N/A   Mostly Cloudy
7:50 AM 30.2 °F 26.7 °F 24.8 °F 80% 30.04 in 6.2 mi Variable 3.5 mph - N/A   Mostly Cloudy
8:20 AM 33.8 °F 27.0 °F 24.8 °F 70% 30.04 in 6.2 mi East 8.1 mph - N/A   Mostly Cloudy
8:50 AM 33.8 °F 27.0 °F 23.0 °F 65% 30.04 in 6.2 mi East 8.1 mph - N/A   Mostly Cloudy
9:20 AM 35.6 °F 28.6 °F 23.0 °F 60% 30.04 in 6.2 mi East 9.2 mph - N/A   Mostly Cloudy
9:50 AM 35.6 °F 27.5 °F 21.2 °F 56% 30.04 in 6.2 mi East 11.5 mph - N/A   Mostly Cloudy
10:20 AM 37.4 °F 29.8 °F 23.0 °F 56% 30.04 in 6.2 mi East 11.5 mph - N/A   Mostly Cloudy
10:50 AM 37.4 °F 29.3 °F 23.0 °F 56% 30.06 in 6.2 mi East 12.7 mph - N/A   Mostly Cloudy
11:20 AM 37.4 °F 28.9 °F 23.0 °F 56% 30.06 in 6.2 mi East 13.8 mph - N/A   Mostly Cloudy
11:50 AM 39.2 °F 31.6 °F 24.8 °F 56% 30.06 in 6.2 mi East 12.7 mph - N/A   Mostly Cloudy
12:20 PM 39.2 °F 30.8 °F 23.0 °F 52% 30.06 in 6.2 mi East 15.0 mph - N/A   Mostly Cloudy
12:50 PM 39.2 °F 31.2 °F 23.0 °F 52% 30.06 in 6.2 mi East 13.8 mph - N/A   Overcast
1:20 PM 39.2 °F 31.2 °F 23.0 °F 52% 30.06 in 6.2 mi ESE 13.8 mph - N/A   Mostly Cloudy
1:50 PM 41.0 °F 34.3 °F 24.8 °F 53% 30.06 in 6.2 mi East 11.5 mph - N/A   Mostly Cloudy
2:20 PM 42.8 °F 36.2 °F 24.8 °F 49% 30.06 in 6.2 mi East 12.7 mph - N/A   Mostly Cloudy
2:50 PM 42.8 °F 35.4 °F 24.8 °F 49% 30.06 in 6.2 mi ESE 15.0 mph - N/A   Scattered Clouds
3:20 PM 42.8 °F 36.2 °F 24.8 °F 49% 30.04 in 6.2 mi East 12.7 mph - N/A   Scattered Clouds
3:50 PM 41.0 °F 33.1 °F 24.8 °F 53% 30.04 in 6.2 mi East 15.0 mph - N/A   Scattered Clouds
4:20 PM 42.8 °F 35.8 °F 24.8 °F 49% 30.04 in 6.2 mi East 13.8 mph - N/A   Scattered Clouds
4:50 PM 42.8 °F 36.2 °F 26.6 °F 53% 30.04 in 6.2 mi ENE 12.7 mph - N/A   Scattered Clouds
5:20 PM 41.0 °F 33.9 °F 24.8 °F 53% 30.04 in 6.2 mi East 12.7 mph - N/A   Mostly Cloudy
5:50 PM 41.0 °F 33.9 °F 26.6 °F 57% 30.04 in 6.2 mi East 12.7 mph - N/A   Scattered Clouds
6:20 PM 39.2 °F 31.2 °F 24.8 °F 56% 30.04 in 6.2 mi ESE 13.8 mph - N/A   Scattered Clouds
6:50 PM 39.2 °F 31.2 °F 23.0 °F 52% 30.06 in 6.2 mi ESE 13.8 mph - N/A   Scattered Clouds
7:20 PM 39.2 °F 31.6 °F 24.8 °F 56% 30.06 in 6.2 mi East 12.7 mph - N/A   Scattered Clouds
7:50 PM 37.4 °F 29.3 °F 23.0 °F 56% 30.06 in 6.2 mi East 12.7 mph - N/A   Scattered Clouds
8:20 PM 35.6 °F 27.5 °F 23.0 °F 60% 30.06 in 6.2 mi East 11.5 mph - N/A   Scattered Clouds
8:50 PM 35.6 °F 29.2 °F 23.0 °F 60% 30.06 in 6.2 mi East 8.1 mph - N/A   Scattered Clouds
9:20 PM 35.6 °F 27.1 °F 23.0 °F 60% 30.09 in 6.2 mi East 12.7 mph - N/A   Mostly Cloudy
9:50 PM 35.6 °F 27.5 °F 23.0 °F 60% 30.09 in 6.2 mi East 11.5 mph - N/A   Mostly Cloudy
10:20 PM 35.6 °F 28.0 °F 23.0 °F 60% 30.09 in 6.2 mi East 10.4 mph - N/A   Overcast
10:50 PM 35.6 °F 28.0 °F 24.8 °F 65% 30.09 in 6.2 mi East 10.4 mph - N/A   Overcast
11:20 PM 35.6 °F 29.2 °F 24.8 °F 65% 30.09 in 6.2 mi East 8.1 mph - N/A   Overcast
11:50 PM 35.6 °F 30.7 °F 24.8 °F 65% 30.09 in 6.2 mi East 5.8 mph - N/A   Overcast